Terminal Aerodrome Forecast
Issued by NWS

Home | Current Version | Previous Version | Text Only | Print | Product List | Glossary On
Versions: 1 2 3 4 5 6 7 8 9 10 11 12 13 14 15 16 17 18 19 20 21 22 23 24 25 26 27 28 29 30 31 32 33 34 35
770
FTUS41 KOKX 300818 AAB
TAFTEB
TAF AMD
KTEB 300818Z 3008/0106 VRB05KT P6SM BKN060
     FM301000 03007KT P6SM BKN060
     FM301200 06010KT P6SM BKN060
     FM301400 09009KT P6SM BKN060
     FM301800 12008KT P6SM FEW025 BKN040
     FM302300 11008KT P6SM SCT015 BKN025
     FM010100 09008KT P6SM FEW008 BKN015
     FM010300 08007KT P6SM FEW003 OVC008=

USA.gov is the U.S. government's official web portal to all federal, state and local government web resources and services.